iso_date,epoch_date,Year,Hour,Min,DOY,POS_DOY,Lat,Lon,BP,Ts,Ta,has_bp,has_ts,has_ta,BuoyID,Buoy_Type,Buoy_Owner,Logistics,Hemisphere
2020-09-07T08:30:02Z,1599467403,2020,8,30,251.3542,251.3542,88.7425,111.1119,-999.00,-999.00,-999.0,no,no,no,300534061907610,unknown,unknown,unknown,North
2020-09-07T09:00:00Z,1599469200,2020,9,0,251.375,251.375,88.7397,111.0933,-999.00,-999.00,-999.0,no,no,no,300534061907610,unknown,unknown,unknown,North
2020-09-07T09:29:57Z,1599470997,2020,9,30,251.3958,251.3958,88.7369,111.0664,-999.00,-999.00,-999.0,no,no,no,300534061907610,unknown,unknown,unknown,North
2020-09-07T10:00:02Z,1599472803,2020,10,0,251.4167,251.4167,88.7342,111.0316,-999.00,-999.00,-999.0,no,no,no,300534061907610,unknown,unknown,unknown,North
2020-09-07T10:30:00Z,1599474600,2020,10,30,251.4375,251.4375,88.7318,110.99,-999.00,-999.00,-999.0,no,no,no,300534061907610,unknown,unknown,unknown,North
2020-09-07T10:59:57Z,1599476397,2020,11,0,251.4583,251.4583,88.7296,110.9413,-999.00,-999.00,-999.0,no,no,no,300534061907610,unknown,unknown,unknown,North
2020-09-07T11:30:02Z,1599478203,2020,11,30,251.4792,251.4792,88.7277,110.8903,-999.00,-999.00,-999.0,no,no,no,300534061907610,unknown,unknown,unknown,North
2020-09-07T12:00:00Z,1599480000,2020,12,0,251.5,251.5,88.7262,110.8373,-999.00,-999.00,-999.0,no,no,no,300534061907610,unknown,unknown,unknown,North
2020-09-07T12:29:57Z,1599481797,2020,12,30,251.5208,251.5208,88.725,110.7858,-999.00,-999.00,-999.0,no,no,no,300534061907610,unknown,unknown,unknown,North
2020-09-07T13:00:02Z,1599483603,2020,13,0,251.5417,251.5417,88.724,110.7368,-999.00,-999.00,-999.0,no,no,no,300534061907610,unknown,unknown,unknown,North
2020-09-07T13:30:00Z,1599485400,2020,13,30,251.5625,251.5625,88.7233,110.6964,-999.00,-999.00,-999.0,no,no,no,300534061907610,unknown,unknown,unknown,North
2020-09-07T13:59:57Z,1599487197,2020,14,0,251.5833,251.5833,88.7227,110.6688,-999.00,-999.00,-999.0,no,no,no,300534061907610,unknown,unknown,unknown,North
2020-09-07T14:30:02Z,1599489003,2020,14,30,251.6042,251.6042,88.7222,110.6599,-999.00,-999.00,-999.0,no,no,no,300534061907610,unknown,unknown,unknown,North
2020-09-07T15:00:00Z,1599490800,2020,15,0,251.625,251.625,88.7218,110.6686,-999.00,-999.00,-999.0,no,no,no,300534061907610,unknown,unknown,unknown,North
2020-09-07T15:29:57Z,1599492597,2020,15,30,251.6458,251.6458,88.7215,110.6874,-999.00,-999.00,-999.0,no,no,no,300534061907610,unknown,unknown,unknown,North
2020-09-07T16:00:02Z,1599494403,2020,16,0,251.6667,251.6667,88.7211,110.7127,-999.00,-999.00,-999.0,no,no,no,300534061907610,unknown,unknown,unknown,North
2020-09-07T16:30:00Z,1599496200,2020,16,30,251.6875,251.6875,88.7207,110.742,-999.00,-999.00,-999.0,no,no,no,300534061907610,unknown,unknown,unknown,North
2020-09-07T16:59:57Z,1599497997,2020,17,0,251.7083,251.7083,88.7202,110.7778,-999.00,-999.00,-999.0,no,no,no,300534061907610,unknown,unknown,unknown,North
2020-09-07T17:30:02Z,1599499803,2020,17,30,251.7292,251.7292,88.7197,110.8171,-999.00,-999.00,-999.0,no,no,no,300534061907610,unknown,unknown,unknown,North
2020-09-07T18:00:00Z,1599501600,2020,18,0,251.75,251.75,88.7191,110.8658,-999.00,-999.00,-999.0,no,no,no,300534061907610,unknown,unknown,unknown,North
2020-09-07T18:29:57Z,1599503397,2020,18,30,251.7708,251.7708,88.7184,110.9185,-999.00,-999.00,-999.0,no,no,no,300534061907610,unknown,unknown,unknown,North
2020-09-07T19:00:02Z,1599505203,2020,19,0,251.7917,251.7917,88.7176,110.9717,-999.00,-999.00,-999.0,no,no,no,300534061907610,unknown,unknown,unknown,North
2020-09-07T19:30:00Z,1599507000,2020,19,30,251.8125,251.8125,88.7167,111.024,-999.00,-999.00,-999.0,no,no,no,300534061907610,unknown,unknown,unknown,North
2020-09-07T19:59:57Z,1599508797,2020,20,0,251.8333,251.8333,88.7157,111.0747,-999.00,-999.00,-999.0,no,no,no,300534061907610,unknown,unknown,unknown,North
2020-09-07T20:30:02Z,1599510603,2020,20,30,251.8542,251.8542,88.7146,111.118,-999.00,-999.00,-999.0,no,no,no,300534061907610,unknown,unknown,unknown,North
2020-09-07T21:00:00Z,1599512400,2020,21,0,251.875,251.875,88.7135,111.1556,-999.00,-999.00,-999.0,no,no,no,300534061907610,unknown,unknown,unknown,North
2020-09-07T21:29:57Z,1599514197,2020,21,30,251.8958,251.8958,88.7124,111.1859,-999.00,-999.00,-999.0,no,no,no,300534061907610,unknown,unknown,unknown,North
2020-09-07T22:00:02Z,1599516003,2020,22,0,251.9167,251.9167,88.7113,111.208,-999.00,-999.00,-999.0,no,no,no,300534061907610,unknown,unknown,unknown,North
2020-09-07T22:30:00Z,1599517800,2020,22,30,251.9375,251.9375,88.7103,111.2217,-999.00,-999.00,-999.0,no,no,no,300534061907610,unknown,unknown,unknown,North
2020-09-07T22:59:57Z,1599519597,2020,23,0,251.9583,251.9583,88.7094,111.2279,-999.00,-999.00,-999.0,no,no,no,300534061907610,unknown,unknown,unknown,North
2020-09-07T23:30:02Z,1599521403,2020,23,30,251.9792,251.9792,88.7088,111.2295,-999.00,-999.00,-999.0,no,no,no,300534061907610,unknown,unknown,unknown,North
2020-09-08T00:00:00Z,1599523200,2020,0,0,252.0,252.0,88.7084,111.231,-999.00,-999.00,-999.0,no,no,no,300534061907610,unknown,unknown,unknown,North
2020-09-08T00:29:57Z,1599524997,2020,0,30,252.0208,252.0208,88.7082,111.2379,-999.00,-999.00,-999.0,no,no,no,300534061907610,unknown,unknown,unknown,North
2020-09-08T01:00:02Z,1599526803,2020,1,0,252.0417,252.0417,88.7082,111.245,-999.00,-999.00,-999.0,no,no,no,300534061907610,unknown,unknown,unknown,North
2020-09-08T01:30:00Z,1599528600,2020,1,30,252.0625,252.0625,88.7083,111.255,-999.00,-999.00,-999.0,no,no,no,300534061907610,unknown,unknown,unknown,North
2020-09-08T01:59:57Z,1599530397,2020,2,0,252.0833,252.0833,88.7087,111.2755,-999.00,-999.00,-999.0,no,no,no,300534061907610,unknown,unknown,unknown,North
2020-09-08T02:30:02Z,1599532203,2020,2,30,252.1042,252.1042,88.7092,111.304,-999.00,-999.00,-999.0,no,no,no,300534061907610,unknown,unknown,unknown,North
2020-09-08T03:00:00Z,1599534000,2020,3,0,252.125,252.125,88.7096,111.3345,-999.00,-999.00,-999.0,no,no,no,300534061907610,unknown,unknown,unknown,North
2020-09-08T03:29:57Z,1599535797,2020,3,30,252.1458,252.1458,88.7102,111.3685,-999.00,-999.00,-999.0,no,no,no,300534061907610,unknown,unknown,unknown,North
2020-09-08T04:00:02Z,1599537603,2020,4,0,252.1667,252.1667,88.7107,111.4097,-999.00,-999.00,-999.0,no,no,no,300534061907610,unknown,unknown,unknown,North
2020-09-08T04:30:00Z,1599539400,2020,4,30,252.1875,252.1875,88.7113,111.4587,-999.00,-999.00,-999.0,no,no,no,300534061907610,unknown,unknown,unknown,North
2020-09-08T04:59:57Z,1599541197,2020,5,0,252.2083,252.2083,88.7117,111.524,-999.00,-999.00,-999.0,no,no,no,300534061907610,unknown,unknown,unknown,North
2020-09-08T05:30:02Z,1599543003,2020,5,30,252.2292,252.2292,88.712,111.598,-999.00,-999.00,-999.0,no,no,no,300534061907610,unknown,unknown,unknown,North
2020-09-08T06:00:00Z,1599544800,2020,6,0,252.25,252.25,88.712,111.6766,-999.00,-999.00,-999.0,no,no,no,300534061907610,unknown,unknown,unknown,North
2020-09-08T06:29:57Z,1599546597,2020,6,30,252.2708,252.2708,88.7119,111.754,-999.00,-999.00,-999.0,no,no,no,300534061907610,unknown,unknown,unknown,North
2020-09-08T07:00:02Z,1599548403,2020,7,0,252.2917,252.2917,88.7118,111.8313,-999.00,-999.00,-999.0,no,no,no,300534061907610,unknown,unknown,unknown,North
2020-09-08T07:30:00Z,1599550200,2020,7,30,252.3125,252.3125,88.7117,111.902,-999.00,-999.00,-999.0,no,no,no,300534061907610,unknown,unknown,unknown,North
2020-09-08T07:59:57Z,1599551997,2020,8,0,252.3333,252.3333,88.7115,111.9673,-999.00,-999.00,-999.0,no,no,no,300534061907610,unknown,unknown,unknown,North
2020-09-08T08:30:02Z,1599553803,2020,8,30,252.3542,252.3542,88.7113,112.0209,-999.00,-999.00,-999.0,no,no,no,300534061907610,unknown,unknown,unknown,North
2020-09-08T09:00:00Z,1599555600,2020,9,0,252.375,252.375,88.7112,112.0647,-999.00,-999.00,-999.0,no,no,no,300534061907610,unknown,unknown,unknown,North
2020-09-08T09:29:57Z,1599557397,2020,9,30,252.3958,252.3958,88.7112,112.0974,-999.00,-999.00,-999.0,no,no,no,300534061907610,unknown,unknown,unknown,North
2020-09-08T10:00:02Z,1599559203,2020,10,0,252.4167,252.4167,88.7116,112.1183,-999.00,-999.00,-999.0,no,no,no,300534061907610,unknown,unknown,unknown,North
2020-09-08T10:30:00Z,1599561000,2020,10,30,252.4375,252.4375,88.7122,112.1333,-999.00,-999.00,-999.0,no,no,no,300534061907610,unknown,unknown,unknown,North
2020-09-08T10:59:57Z,1599562797,2020,11,0,252.4583,252.4583,88.7131,112.1426,-999.00,-999.00,-999.0,no,no,no,300534061907610,unknown,unknown,unknown,North
2020-09-08T11:30:02Z,1599564603,2020,11,30,252.4792,252.4792,88.7143,112.1483,-999.00,-999.00,-999.0,no,no,no,300534061907610,unknown,unknown,unknown,North
2020-09-08T12:00:00Z,1599566400,2020,12,0,252.5,252.5,88.7155,112.1505,-999.00,-999.00,-999.0,no,no,no,300534061907610,unknown,unknown,unknown,North
2020-09-08T12:29:57Z,1599568197,2020,12,30,252.5208,252.5208,88.717,112.1509,-999.00,-999.00,-999.0,no,no,no,300534061907610,unknown,unknown,unknown,North
2020-09-08T13:00:02Z,1599570003,2020,13,0,252.5417,252.5417,88.7188,112.1536,-999.00,-999.00,-999.0,no,no,no,300534061907610,unknown,unknown,unknown,North
2020-09-08T13:30:00Z,1599571800,2020,13,30,252.5625,252.5625,88.7207,112.1646,-999.00,-999.00,-999.0,no,no,no,300534061907610,unknown,unknown,unknown,North
2020-09-08T13:59:57Z,1599573597,2020,14,0,252.5833,252.5833,88.7226,112.1832,-999.00,-999.00,-999.0,no,no,no,300534061907610,unknown,unknown,unknown,North
2020-09-08T14:30:02Z,1599575403,2020,14,30,252.6042,252.6042,88.7247,112.2097,-999.00,-999.00,-999.0,no,no,no,300534061907610,unknown,unknown,unknown,North
2020-09-08T15:00:00Z,1599577200,2020,15,0,252.625,252.625,88.7269,112.2485,-999.00,-999.00,-999.0,no,no,no,300534061907610,unknown,unknown,unknown,North
2020-09-08T15:29:57Z,1599578997,2020,15,30,252.6458,252.6458,88.7289,112.3003,-999.00,-999.00,-999.0,no,no,no,300534061907610,unknown,unknown,unknown,North
2020-09-08T16:30:00Z,1599582600,2020,16,30,252.6875,252.6875,88.7331,112.435,-999.00,-999.00,-999.0,no,no,no,300534061907610,unknown,unknown,unknown,North
2020-09-08T16:59:57Z,1599584397,2020,17,0,252.7083,252.7083,88.735,112.515,-999.00,-999.00,-999.0,no,no,no,300534061907610,unknown,unknown,unknown,North
2020-09-08T17:30:02Z,1599586203,2020,17,30,252.7292,252.7292,88.7368,112.5945,-999.00,-999.00,-999.0,no,no,no,300534061907610,unknown,unknown,unknown,North
2020-09-08T18:00:00Z,1599588000,2020,18,0,252.75,252.75,88.7382,112.6747,-999.00,-999.00,-999.0,no,no,no,300534061907610,unknown,unknown,unknown,North
2020-09-08T18:29:57Z,1599589797,2020,18,30,252.7708,252.7708,88.7394,112.7506,-999.00,-999.00,-999.0,no,no,no,300534061907610,unknown,unknown,unknown,North
2020-09-08T19:00:02Z,1599591603,2020,19,0,252.7917,252.7917,88.7405,112.8121,-999.00,-999.00,-999.0,no,no,no,300534061907610,unknown,unknown,unknown,North
2020-09-08T19:30:00Z,1599593400,2020,19,30,252.8125,252.8125,88.7414,112.8592,-999.00,-999.00,-999.0,no,no,no,300534061907610,unknown,unknown,unknown,North
2020-09-08T19:59:57Z,1599595197,2020,20,0,252.8333,252.8333,88.7423,112.891,-999.00,-999.00,-999.0,no,no,no,300534061907610,unknown,unknown,unknown,North
2020-09-08T20:30:02Z,1599597003,2020,20,30,252.8542,252.8542,88.743,112.9085,-999.00,-999.00,-999.0,no,no,no,300534061907610,unknown,unknown,unknown,North
2020-09-08T21:00:00Z,1599598800,2020,21,0,252.875,252.875,88.7437,112.9113,-999.00,-999.00,-999.0,no,no,no,300534061907610,unknown,unknown,unknown,North
2020-09-08T21:29:57Z,1599600597,2020,21,30,252.8958,252.8958,88.7445,112.8995,-999.00,-999.00,-999.0,no,no,no,300534061907610,unknown,unknown,unknown,North
2020-09-08T22:00:02Z,1599602403,2020,22,0,252.9167,252.9167,88.7452,112.8761,-999.00,-999.00,-999.0,no,no,no,300534061907610,unknown,unknown,unknown,North
2020-09-08T22:30:00Z,1599604200,2020,22,30,252.9375,252.9375,88.746,112.8373,-999.00,-999.00,-999.0,no,no,no,300534061907610,unknown,unknown,unknown,North
2020-09-08T22:59:57Z,1599605997,2020,23,0,252.9583,252.9583,88.7469,112.7854,-999.00,-999.00,-999.0,no,no,no,300534061907610,unknown,unknown,unknown,North
2020-09-08T23:30:02Z,1599607803,2020,23,30,252.9792,252.9792,88.7481,112.7222,-999.00,-999.00,-999.0,no,no,no,300534061907610,unknown,unknown,unknown,North
2020-09-09T00:00:00Z,1599609600,2020,0,0,253.0,253.0,88.7493,112.654,-999.00,-999.00,-999.0,no,no,no,300534061907610,unknown,unknown,unknown,North
2020-09-09T00:29:57Z,1599611397,2020,0,30,253.0208,253.0208,88.7509,112.5811,-999.00,-999.00,-999.0,no,no,no,300534061907610,unknown,unknown,unknown,North
2020-09-09T01:00:02Z,1599613203,2020,1,0,253.0417,253.0417,88.7526,112.5073,-999.00,-999.00,-999.0,no,no,no,300534061907610,unknown,unknown,unknown,North
2020-09-09T01:30:00Z,1599615000,2020,1,30,253.0625,253.0625,88.7545,112.4339,-999.00,-999.00,-999.0,no,no,no,300534061907610,unknown,unknown,unknown,North
2020-09-09T01:59:57Z,1599616797,2020,2,0,253.0833,253.0833,88.7565,112.3604,-999.00,-999.00,-999.0,no,no,no,300534061907610,unknown,unknown,unknown,North
2020-09-09T02:30:02Z,1599618603,2020,2,30,253.1042,253.1042,88.7585,112.2911,-999.00,-999.00,-999.0,no,no,no,300534061907610,unknown,unknown,unknown,North
2020-09-09T03:00:00Z,1599620400,2020,3,0,253.125,253.125,88.7604,112.223,-999.00,-999.00,-999.0,no,no,no,300534061907610,unknown,unknown,unknown,North
2020-09-09T03:29:57Z,1599622197,2020,3,30,253.1458,253.1458,88.7621,112.1588,-999.00,-999.00,-999.0,no,no,no,300534061907610,unknown,unknown,unknown,North
2020-09-09T04:00:02Z,1599624003,2020,4,0,253.1667,253.1667,88.7636,112.0919,-999.00,-999.00,-999.0,no,no,no,300534061907610,unknown,unknown,unknown,North
2020-09-09T04:30:00Z,1599625800,2020,4,30,253.1875,253.1875,88.7649,112.028,-999.00,-999.00,-999.0,no,no,no,300534061907610,unknown,unknown,unknown,North
2020-09-09T04:59:57Z,1599627597,2020,5,0,253.2083,253.2083,88.766,111.9637,-999.00,-999.00,-999.0,no,no,no,300534061907610,unknown,unknown,unknown,North
2020-09-09T05:30:02Z,1599629403,2020,5,30,253.2292,253.2292,88.7667,111.8972,-999.00,-999.00,-999.0,no,no,no,300534061907610,unknown,unknown,unknown,North
2020-09-09T06:00:00Z,1599631200,2020,6,0,253.25,253.25,88.767,111.8227,-999.00,-999.00,-999.0,no,no,no,300534061907610,unknown,unknown,unknown,North
2020-09-09T06:29:57Z,1599632997,2020,6,30,253.2708,253.2708,88.767,111.7407,-999.00,-999.00,-999.0,no,no,no,300534061907610,unknown,unknown,unknown,North
2020-09-09T07:00:02Z,1599634803,2020,7,0,253.2917,253.2917,88.7666,111.651,-999.00,-999.00,-999.0,no,no,no,300534061907610,unknown,unknown,unknown,North
2020-09-09T07:30:00Z,1599636600,2020,7,30,253.3125,253.3125,88.7659,111.5491,-999.00,-999.00,-999.0,no,no,no,300534061907610,unknown,unknown,unknown,North
2020-09-09T07:59:57Z,1599638397,2020,8,0,253.3333,253.3333,88.765,111.4348,-999.00,-999.00,-999.0,no,no,no,300534061907610,unknown,unknown,unknown,North
2020-09-09T08:30:02Z,1599640203,2020,8,30,253.3542,253.3542,88.764,111.3141,-999.00,-999.00,-999.0,no,no,no,300534061907610,unknown,unknown,unknown,North
2020-09-09T09:00:00Z,1599642000,2020,9,0,253.375,253.375,88.763,111.1775,-999.00,-999.00,-999.0,no,no,no,300534061907610,unknown,unknown,unknown,North
2020-09-09T09:29:57Z,1599643797,2020,9,30,253.3958,253.3958,88.762,111.0243,-999.00,-999.00,-999.0,no,no,no,300534061907610,unknown,unknown,unknown,North
2020-09-09T10:00:02Z,1599645603,2020,10,0,253.4167,253.4167,88.7611,110.8584,-999.00,-999.00,-999.0,no,no,no,300534061907610,unknown,unknown,unknown,North
2020-09-09T10:30:00Z,1599647400,2020,10,30,253.4375,253.4375,88.7603,110.6777,-999.00,-999.00,-999.0,no,no,no,300534061907610,unknown,unknown,unknown,North
2020-09-09T10:59:57Z,1599649197,2020,11,0,253.4583,253.4583,88.7596,110.491,-999.00,-999.00,-999.0,no,no,no,300534061907610,unknown,unknown,unknown,North
2020-09-09T11:30:02Z,1599651003,2020,11,30,253.4792,253.4792,88.7589,110.3021,-999.00,-999.00,-999.0,no,no,no,300534061907610,unknown,unknown,unknown,North
2020-09-09T12:00:00Z,1599652800,2020,12,0,253.5,253.5,88.7585,110.1148,-999.00,-999.00,-999.0,no,no,no,300534061907610,unknown,unknown,unknown,North
2020-09-09T12:29:57Z,1599654597,2020,12,30,253.5208,253.5208,88.7584,109.9279,-999.00,-999.00,-999.0,no,no,no,300534061907610,unknown,unknown,unknown,North
2020-09-09T13:00:02Z,1599656403,2020,13,0,253.5417,253.5417,88.7584,109.7484,-999.00,-999.00,-999.0,no,no,no,300534061907610,unknown,unknown,unknown,North
2020-09-09T13:30:00Z,1599658200,2020,13,30,253.5625,253.5625,88.7585,109.5863,-999.00,-999.00,-999.0,no,no,no,300534061907610,unknown,unknown,unknown,North
2020-09-09T13:59:57Z,1599659997,2020,14,0,253.5833,253.5833,88.7588,109.4395,-999.00,-999.00,-999.0,no,no,no,300534061907610,unknown,unknown,unknown,North
2020-09-09T14:30:02Z,1599661803,2020,14,30,253.6042,253.6042,88.7591,109.3166,-999.00,-999.00,-999.0,no,no,no,300534061907610,unknown,unknown,unknown,North
2020-09-09T15:00:00Z,1599663600,2020,15,0,253.625,253.625,88.7593,109.2127,-999.00,-999.00,-999.0,no,no,no,300534061907610,unknown,unknown,unknown,North
2020-09-09T15:29:57Z,1599665397,2020,15,30,253.6458,253.6458,88.7592,109.1342,-999.00,-999.00,-999.0,no,no,no,300534061907610,unknown,unknown,unknown,North
2020-09-09T16:00:02Z,1599667203,2020,16,0,253.6667,253.6667,88.7591,109.0767,-999.00,-999.00,-999.0,no,no,no,300534061907610,unknown,unknown,unknown,North
2020-09-09T16:30:00Z,1599669000,2020,16,30,253.6875,253.6875,88.7586,109.0501,-999.00,-999.00,-999.0,no,no,no,300534061907610,unknown,unknown,unknown,North
2020-09-09T16:59:57Z,1599670797,2020,17,0,253.7083,253.7083,88.758,109.0377,-999.00,-999.00,-999.0,no,no,no,300534061907610,unknown,unknown,unknown,North
2020-09-09T17:30:02Z,1599672603,2020,17,30,253.7292,253.7292,88.7572,109.0215,-999.00,-999.00,-999.0,no,no,no,300534061907610,unknown,unknown,unknown,North
2020-09-09T18:00:00Z,1599674400,2020,18,0,253.75,253.75,88.7563,108.9978,-999.00,-999.00,-999.0,no,no,no,300534061907610,unknown,unknown,unknown,North
2020-09-09T18:29:57Z,1599676197,2020,18,30,253.7708,253.7708,88.7552,108.9631,-999.00,-999.00,-999.0,no,no,no,300534061907610,unknown,unknown,unknown,North
2020-09-09T19:00:02Z,1599678003,2020,19,0,253.7917,253.7917,88.754,108.915,-999.00,-999.00,-999.0,no,no,no,300534061907610,unknown,unknown,unknown,North
2020-09-09T19:30:00Z,1599679800,2020,19,30,253.8125,253.8125,88.7526,108.8537,-999.00,-999.00,-999.0,no,no,no,300534061907610,unknown,unknown,unknown,North
2020-09-09T19:59:57Z,1599681597,2020,20,0,253.8333,253.8333,88.7511,108.7753,-999.00,-999.00,-999.0,no,no,no,300534061907610,unknown,unknown,unknown,North
2020-09-09T20:30:02Z,1599683403,2020,20,30,253.8542,253.8542,88.7497,108.6796,-999.00,-999.00,-999.0,no,no,no,300534061907610,unknown,unknown,unknown,North
2020-09-09T21:00:00Z,1599685200,2020,21,0,253.875,253.875,88.7483,108.5647,-999.00,-999.00,-999.0,no,no,no,300534061907610,unknown,unknown,unknown,North
2020-09-09T21:29:57Z,1599686997,2020,21,30,253.8958,253.8958,88.7471,108.4391,-999.00,-999.00,-999.0,no,no,no,300534061907610,unknown,unknown,unknown,North
2020-09-09T22:00:02Z,1599688803,2020,22,0,253.9167,253.9167,88.746,108.3009,-999.00,-999.00,-999.0,no,no,no,300534061907610,unknown,unknown,unknown,North
2020-09-09T22:30:00Z,1599690600,2020,22,30,253.9375,253.9375,88.7452,108.1537,-999.00,-999.00,-999.0,no,no,no,300534061907610,unknown,unknown,unknown,North
2020-09-09T22:59:57Z,1599692397,2020,23,0,253.9583,253.9583,88.7445,107.9998,-999.00,-999.00,-999.0,no,no,no,300534061907610,unknown,unknown,unknown,North
2020-09-09T23:30:02Z,1599694203,2020,23,30,253.9792,253.9792,88.7441,107.8343,-999.00,-999.00,-999.0,no,no,no,300534061907610,unknown,unknown,unknown,North
2020-09-10T00:00:00Z,1599696000,2020,0,0,254.0,254.0,88.744,107.6723,-999.00,-999.00,-999.0,no,no,no,300534061907610,unknown,unknown,unknown,North
2020-09-10T00:29:57Z,1599697797,2020,0,30,254.0208,254.0208,88.744,107.5128,-999.00,-999.00,-999.0,no,no,no,300534061907610,unknown,unknown,unknown,North
2020-09-10T01:00:02Z,1599699603,2020,1,0,254.0417,254.0417,88.7441,107.3652,-999.00,-999.00,-999.0,no,no,no,300534061907610,unknown,unknown,unknown,North
2020-09-10T01:30:00Z,1599701400,2020,1,30,254.0625,254.0625,88.7443,107.2313,-999.00,-999.00,-999.0,no,no,no,300534061907610,unknown,unknown,unknown,North
2020-09-10T01:59:57Z,1599703197,2020,2,0,254.0833,254.0833,88.7447,107.1117,-999.00,-999.00,-999.0,no,no,no,300534061907610,unknown,unknown,unknown,North
2020-09-10T02:30:02Z,1599705003,2020,2,30,254.1042,254.1042,88.7452,107.0083,-999.00,-999.00,-999.0,no,no,no,300534061907610,unknown,unknown,unknown,North
2020-09-10T03:00:00Z,1599706800,2020,3,0,254.125,254.125,88.7458,106.9189,-999.00,-999.00,-999.0,no,no,no,300534061907610,unknown,unknown,unknown,North
2020-09-10T03:29:57Z,1599708597,2020,3,30,254.1458,254.1458,88.7464,106.8377,-999.00,-999.00,-999.0,no,no,no,300534061907610,unknown,unknown,unknown,North
2020-09-10T04:00:02Z,1599710403,2020,4,0,254.1667,254.1667,88.7469,106.7705,-999.00,-999.00,-999.0,no,no,no,300534061907610,unknown,unknown,unknown,North
2020-09-10T04:30:00Z,1599712200,2020,4,30,254.1875,254.1875,88.7472,106.7178,-999.00,-999.00,-999.0,no,no,no,300534061907610,unknown,unknown,unknown,North
2020-09-10T04:59:57Z,1599713997,2020,5,0,254.2083,254.2083,88.7474,106.6709,-999.00,-999.00,-999.0,no,no,no,300534061907610,unknown,unknown,unknown,North
2020-09-10T05:30:02Z,1599715803,2020,5,30,254.2292,254.2292,88.7475,106.6262,-999.00,-999.00,-999.0,no,no,no,300534061907610,unknown,unknown,unknown,North
2020-09-10T06:00:00Z,1599717600,2020,6,0,254.25,254.25,88.7473,106.5863,-999.00,-999.00,-999.0,no,no,no,300534061907610,unknown,unknown,unknown,North
2020-09-10T06:29:57Z,1599719397,2020,6,30,254.2708,254.2708,88.747,106.5428,-999.00,-999.00,-999.0,no,no,no,300534061907610,unknown,unknown,unknown,North
2020-09-10T07:00:02Z,1599721203,2020,7,0,254.2917,254.2917,88.7465,106.4997,-999.00,-999.00,-999.0,no,no,no,300534061907610,unknown,unknown,unknown,North
2020-09-10T07:30:00Z,1599723000,2020,7,30,254.3125,254.3125,88.7459,106.4551,-999.00,-999.00,-999.0,no,no,no,300534061907610,unknown,unknown,unknown,North
2020-09-10T07:59:57Z,1599724797,2020,8,0,254.3333,254.3333,88.7452,106.4055,-999.00,-999.00,-999.0,no,no,no,300534061907610,unknown,unknown,unknown,North
2020-09-10T08:30:02Z,1599726603,2020,8,30,254.3542,254.3542,88.7444,106.3542,-999.00,-999.00,-999.0,no,no,no,300534061907610,unknown,unknown,unknown,North
2020-09-10T09:00:00Z,1599728400,2020,9,0,254.375,254.375,88.7436,106.2971,-999.00,-999.00,-999.0,no,no,no,300534061907610,unknown,unknown,unknown,North
2020-09-10T09:29:57Z,1599730197,2020,9,30,254.3958,254.3958,88.7429,106.2346,-999.00,-999.00,-999.0,no,no,no,300534061907610,unknown,unknown,unknown,North
2020-09-10T10:00:02Z,1599732003,2020,10,0,254.4167,254.4167,88.7423,106.1682,-999.00,-999.00,-999.0,no,no,no,300534061907610,unknown,unknown,unknown,North
2020-09-10T10:30:00Z,1599733800,2020,10,30,254.4375,254.4375,88.7419,106.0974,-999.00,-999.00,-999.0,no,no,no,300534061907610,unknown,unknown,unknown,North
2020-09-10T10:59:57Z,1599735597,2020,11,0,254.4583,254.4583,88.7416,106.0222,-999.00,-999.00,-999.0,no,no,no,300534061907610,unknown,unknown,unknown,North
2020-09-10T11:30:02Z,1599737403,2020,11,30,254.4792,254.4792,88.7415,105.9451,-999.00,-999.00,-999.0,no,no,no,300534061907610,unknown,unknown,unknown,North
2020-09-10T12:00:00Z,1599739200,2020,12,0,254.5,254.5,88.7415,105.8691,-999.00,-999.00,-999.0,no,no,no,300534061907610,unknown,unknown,unknown,North
2020-09-10T12:29:57Z,1599740997,2020,12,30,254.5208,254.5208,88.7418,105.7942,-999.00,-999.00,-999.0,no,no,no,300534061907610,unknown,unknown,unknown,North
2020-09-10T13:00:02Z,1599742803,2020,13,0,254.5417,254.5417,88.7421,105.7205,-999.00,-999.00,-999.0,no,no,no,300534061907610,unknown,unknown,unknown,North
2020-09-10T13:30:00Z,1599744600,2020,13,30,254.5625,254.5625,88.7427,105.6477,-999.00,-999.00,-999.0,no,no,no,300534061907610,unknown,unknown,unknown,North